Location: Banska Bystrica
(48.7333°N, 19.1500°E)
Time: 02:08:05
(UTC+01:00)

ISS - Pass Details

Date: 31 January 2021
Orbit: 417 x 422 km, 51.6° (Epoch: 06 March)

Event Time Altitude Azimuth Distance (km) Brightness Sun altitude
Rises 18:03:53 0° 289° (WNW) 2,375 1.2 -14.0°
Reaches altitude 10° 18:06:00 10° 291° (WNW) 1,510 0.0 -14.3°
Maximum altitude 18:09:23 70° 15° (NNE) 453 -3.8 -14.8°
Enters shadow 18:10:44 33° 92° (E) 734 -3.1 -15.1°
